| time (UTC) | temp F | wind direction | speed knots | gust knots | rain 1hr in | rain 24hr in | rain mn in | humidity % | barometer mb |
| 20260506084847 | 76 | 84 | 0.0 | 0.0 | 0.00 | 0.00 | 0.00 | 90 | 1011.0 |
| 20260506084344 | 76 | 84 | 0.0 | 0.0 | 0.00 | 0.00 | 0.00 | 89 | 1011.2 |
| 20260506083840 | 76 | 117 | 0.0 | 0.0 | 0.00 | 0.00 | 0.00 | 89 | 1011.0 |
| 20260506083338 | 76 | 117 | 0.0 | 0.0 | 0.00 | 0.00 | 0.00 | 89 | 1010.8 |
| 20260506082835 | 76 | 112 | 0.0 | 0.9 | 0.00 | 0.00 | 0.00 | 89 | 1011.0 |
| 20260506082331 | 76 | 105 | 0.0 | 0.9 | 0.00 | 0.00 | 0.00 | 89 | 1011.0 |
| 20260506081828 | 76 | 88 | 0.9 | 2.6 | 0.00 | 0.00 | 0.00 | 90 | 1011.0 |
| 20260506081326 | 76 | 100 | 0.0 | 0.0 | 0.00 | 0.00 | 0.00 | 89 | 1010.9 |
| 20260506080823 | 76 | 101 | 0.0 | 0.9 | 0.00 | 0.00 | 0.00 | 90 | 1011.1 |
| 20260506080319 | 76 | 99 | 0.0 | 1.7 | 0.00 | 0.00 | 0.00 | 89 | 1011.1 |
| 20260506073304 | 76 | 101 | 0.0 | 0.9 | 0.00 | 0.00 | 0.00 | 89 | 1011.0 |
| 20260506072800 | 76 | 90 | 0.0 | 0.9 | 0.00 | 0.00 | 0.00 | 89 | 1011.0 |
| 20260506072258 | 76 | 114 | 0.0 | 1.7 | 0.00 | 0.00 | 0.00 | 89 | 1011.1 |
| 20260506071755 | 76 | 115 | 0.0 | 0.9 | 0.00 | 0.00 | 0.00 | 88 | 1011.2 |
| 20260506071253 | 76 | 109 | 0.9 | 1.7 | 0.00 | 0.00 | 0.00 | 88 | 1011.2 |
| 20260506070750 | 76 | 120 | 0.0 | 0.9 | 0.00 | 0.00 | 0.00 | 88 | 1011.3 |
| 20260506070247 | 77 | 106 | 0.0 | 0.9 | 0.00 | 0.00 | 0.00 | 88 | 1011.6 |
| 20260506062224 | 77 | 83 | 0.0 | 0.9 | 0.00 | 0.00 | 0.00 | 87 | 1011.9 |
| 20260506061720 | 77 | 116 | 0.0 | 0.0 | 0.00 | 0.00 | 0.00 | 87 | 1012.0 |
| 20260506061217 | 77 | 111 | 0.0 | 0.0 | 0.00 | 0.00 | 0.00 | 87 | 1011.8 |
| 20260506060716 | 77 | 127 | 0.0 | 0.9 | 0.00 | 0.00 | 0.00 | 87 | 1012.0 |
| 20260506060213 | 77 | 74 | 0.0 | 0.9 | 0.00 | 0.00 | 0.00 | 87 | 1011.8 |
| 20260506051144 | 77 | 71 | 0.0 | 0.0 | 0.00 | 0.00 | 0.00 | 87 | 1011.9 |
| 20260506050643 | 77 | 88 | 0.0 | 0.9 | 0.00 | 0.00 | 0.00 | 87 | 1011.9 |
| 20260506050140 | 76 | 98 | 0.0 | 0.0 | 0.00 | 0.00 | 0.00 | 87 | 1011.8 |
| 20260506045133 | 76 | 101 | 0.0 | 0.0 | 0.00 | 0.00 | 0.00 | 87 | 1011.8 |
| 20260506044631 | 76 | 101 | 0.0 | 0.0 | 0.00 | 0.00 | 0.00 | 87 | 1011.9 |
| 20260506044128 | 76 | 101 | 0.0 | 0.0 | 0.00 | 0.00 | 0.00 | 87 | 1011.8 |
| 20260506043624 | 76 | 101 | 0.0 | 0.0 | 0.00 | 0.00 | 0.00 | 87 | 1011.6 |
| 20260506043123 | 76 | 101 | 0.0 | 0.0 | 0.00 | 0.00 | 0.00 | 87 | 1011.7 |
| 20260506042621 | 76 | 89 | 0.0 | 0.0 | 0.00 | 0.00 | 0.00 | 86 | 1011.4 |
| 20260506042119 | 76 | 89 | 0.0 | 1.7 | 0.00 | 0.00 | 0.00 | 86 | 1011.4 |
| 20260506041618 | 76 | 82 | 0.0 | 0.0 | 0.00 | 0.00 | 0.00 | 86 | 1011.6 |
| 20260506041114 | 76 | 101 | 0.0 | 1.7 | 0.00 | 0.00 | 0.00 | 86 | 1011.4 |
| 20260506040612 | 76 | 57 | 0.9 | 0.9 | 0.00 | 0.00 | 0.00 | 86 | 1011.4 |
| 20260506040108 | 77 | 96 | 0.0 | 0.0 | 0.00 | 0.00 | 0.00 | 85 | 1011.0 |
| 20260506035605 | 77 | 106 | 1.7 | 2.6 | 0.00 | 0.00 | 0.00 | 85 | 1011.0 |
| 20260506035102 | 76 | 108 | 0.0 | 1.7 | 0.00 | 0.00 | 0.00 | 85 | 1011.0 |
| 20260506034559 | 77 | 103 | 0.0 | 0.0 | 0.00 | 0.00 | 0.00 | 85 | 1011.0 |
| 20260506034056 | 77 | 87 | 0.0 | 1.7 | 0.00 | 0.00 | 0.00 | 85 | 1011.0 |
| 20260506033553 | 77 | 107 | 0.0 | 0.9 | 0.00 | 0.00 | 0.00 | 85 | 1011.0 |
| 20260506033050 | 77 | 121 | 0.9 | 1.7 | 0.00 | 0.00 | 0.00 | 85 | 1010.9 |
| 20260506032548 | 77 | 97 | 0.9 | 1.7 | 0.00 | 0.00 | 0.00 | 85 | 1010.9 |
| 20260506032044 | 77 | 94 | 0.0 | 0.0 | 0.00 | 0.00 | 0.00 | 85 | 1010.9 |
| 20260506031542 | 77 | 95 | 0.9 | 1.7 | 0.00 | 0.00 | 0.00 | 85 | 1011.0 |
| 20260506031038 | 77 | 99 | 0.0 | 0.9 | 0.00 | 0.00 | 0.00 | 85 | 1010.6 |
| 20260506030537 | 77 | 100 | 0.0 | 0.0 | 0.00 | 0.00 | 0.00 | 85 | 1010.6 |
| 20260506030033 | 77 | 101 | 0.0 | 0.0 | 0.00 | 0.00 | 0.00 | 84 | 1010.7 |
| 20260506025531 | 77 | 101 | 0.0 | 0.0 | 0.00 | 0.00 | 0.00 | 84 | 1010.6 |
| 20260506025026 | 77 | 97 | 0.0 | 0.9 | 0.00 | 0.00 | 0.00 | 84 | 1010.5 |
| 20260506024523 | 78 | 107 | 0.0 | 0.9 | 0.00 | 0.00 | 0.00 | 83 | 1010.7 |
| 20260506024020 | 78 | 110 | 0.0 | 0.0 | 0.00 | 0.00 | 0.00 | 82 | 1010.6 |
| 20260506023516 | 78 | 112 | 0.0 | 0.9 | 0.00 | 0.00 | 0.00 | 82 | 1010.4 |
| 20260506023014 | 78 | 96 | 0.0 | 0.9 | 0.00 | 0.00 | 0.00 | 82 | 1010.4 |
| 20260506022511 | 78 | 120 | 0.0 | 0.9 | 0.00 | 0.00 | 0.00 | 82 | 1010.3 |
| 20260506022009 | 78 | 113 | 0.9 | 0.9 | 0.00 | 0.00 | 0.00 | 82 | 1010.6 |
| 20260506021506 | 78 | 92 | 0.0 | 0.0 | 0.00 | 0.00 | 0.00 | 82 | 1010.5 |
| 20260506021003 | 78 | 92 | 0.0 | 0.0 | 0.00 | 0.00 | 0.00 | 81 | 1010.3 |
| 20260506020500 | 78 | 92 | 0.0 | 0.0 | 0.00 | 0.00 | 0.00 | 81 | 1010.2 |
| 20260506015957 | 78 | 92 | 0.0 | 0.0 | 0.00 | 0.00 | 0.00 | 80 | 1010.2 |
| 20260506015455 | 79 | 96 | 0.0 | 0.0 | 0.00 | 0.00 | 0.00 | 80 | 1010.0 |
| 20260506014952 | 79 | 118 | 0.0 | 0.0 | 0.00 | 0.00 | 0.00 | 80 | 1009.7 |
| 20260506014448 | 79 | 86 | 0.0 | 1.7 | 0.00 | 0.00 | 0.00 | 80 | 1009.8 |
| 20260506013945 | 79 | 110 | 0.9 | 0.9 | 0.00 | 0.00 | 0.00 | 80 | 1009.7 |
| 20260506013443 | 79 | 97 | 0.0 | 0.0 | 0.00 | 0.00 | 0.00 | 81 | 1009.7 |
| 20260506012939 | 79 | 97 | 0.0 | 0.0 | 0.00 | 0.00 | 0.00 | 80 | 1009.6 |
| 20260506012436 | 79 | 97 | 0.0 | 0.9 | 0.00 | 0.00 | 0.00 | 80 | 1009.7 |
| 20260506011933 | 79 | 96 | 0.0 | 0.0 | 0.00 | 0.00 | 0.00 | 80 | 1009.5 |
| 20260506011430 | 79 | 100 | 0.0 | 0.0 | 0.00 | 0.00 | 0.00 | 80 | 1009.5 |
| 20260506010927 | 80 | 100 | 0.0 | 0.0 | 0.00 | 0.00 | 0.00 | 79 | 1009.2 |
| 20260506010426 | 80 | 100 | 0.0 | 0.0 | 0.00 | 0.00 | 0.00 | 79 | 1009.4 |
| 20260506005921 | 80 | 109 | 0.0 | 0.9 | 0.00 | 0.00 | 0.00 | 79 | 1009.3 |
| 20260506005419 | 80 | 98 | 0.0 | 0.0 | 0.00 | 0.00 | 0.00 | 78 | 1009.2 |
| 20260506004914 | 80 | 98 | 0.0 | 0.0 | 0.00 | 0.00 | 0.00 | 78 | 1009.1 |
| 20260506004413 | 80 | 96 | 0.0 | 0.9 | 0.00 | 0.00 | 0.00 | 78 | 1009.1 |
| 20260506003908 | 80 | 92 | 0.0 | 0.0 | 0.00 | 0.00 | 0.00 | 78 | 1009.2 |
| 20260506003404 | 80 | 84 | 0.0 | 0.9 | 0.00 | 0.00 | 0.00 | 78 | 1008.9 |
| 20260506002902 | 81 | 68 | 0.0 | 0.9 | 0.00 | 0.00 | 0.00 | 77 | 1009.1 |
| 20260506002357 | 81 | 118 | 0.0 | 0.9 | 0.00 | 0.00 | 0.00 | 77 | 1009.1 |
| 20260506001853 | 81 | 117 | 0.0 | 0.0 | 0.00 | 0.00 | 0.00 | 77 | 1008.8 |
| 20260506001350 | 81 | 104 | 0.0 | 0.9 | 0.00 | 0.00 | 0.00 | 77 | 1009.1 |
| 20260506000847 | 81 | 108 | 0.0 | 0.9 | 0.00 | 0.00 | 0.00 | 76 | 1009.0 |
| 20260506000346 | 82 | 109 | 0.0 | 0.9 | 0.00 | 0.00 | 0.00 | 76 | 1009.0 |
| 20260505235842 | 82 | 106 | 0.0 | 0.0 | 0.00 | 0.00 | 0.00 | 76 | 1009.2 |
| 20260505235339 | 82 | 104 | 0.0 | 0.0 | 0.00 | 0.00 | 0.00 | 75 | 1009.1 |
| 20260505234836 | 82 | 127 | 0.0 | 0.9 | 0.00 | 0.00 | 0.00 | 75 | 1009.1 |
| 20260505234334 | 82 | 105 | 0.9 | 1.7 | 0.00 | 0.00 | 0.00 | 75 | 1009.0 |
| 20260505233830 | 82 | 116 | 0.0 | 0.9 | 0.00 | 0.00 | 0.00 | 75 | 1009.1 |
| 20260505233328 | 82 | 112 | 0.0 | 0.0 | 0.00 | 0.00 | 0.00 | 74 | 1008.9 |
| 20260505232825 | 82 | 116 | 0.9 | 0.9 | 0.00 | 0.00 | 0.00 | 73 | 1008.8 |
| 20260505232323 | 83 | 111 | 0.9 | 1.7 | 0.00 | 0.00 | 0.00 | 73 | 1009.0 |
| 20260505231820 | 83 | 107 | 0.9 | 1.7 | 0.00 | 0.00 | 0.00 | 73 | 1009.2 |
| 20260505231318 | 83 | 98 | 0.0 | 0.9 | 0.00 | 0.00 | 0.00 | 73 | 1009.0 |
| 20260505230816 | 83 | 104 | 0.0 | 1.7 | 0.00 | 0.00 | 0.00 | 73 | 1009.2 |
| 20260505230312 | 83 | 100 | 0.0 | 1.7 | 0.00 | 0.00 | 0.00 | 73 | 1009.1 |
| 20260505225809 | 83 | 103 | 1.7 | 3.5 | 0.00 | 0.00 | 0.00 | 73 | 1009.2 |
| 20260505225306 | 83 | 88 | 0.0 | 0.9 | 0.00 | 0.00 | 0.00 | 74 | 1009.3 |
| 20260505224801 | 83 | 80 | 0.0 | 0.9 | 0.00 | 0.00 | 0.00 | 73 | 1009.2 |
| 20260505224259 | 83 | 108 | 0.0 | 0.0 | 0.00 | 0.00 | 0.00 | 73 | 1009.1 |
| 20260505223756 | 83 | 131 | 0.9 | 0.9 | 0.00 | 0.00 | 0.00 | 73 | 1009.0 |
| 20260505223253 | 83 | 132 | 1.7 | 3.5 | 0.00 | 0.00 | 0.00 | 73 | 1009.1 |
| 20260505222749 | 83 | 156 | 0.0 | 0.0 | 0.00 | 0.00 | 0.00 | 74 | 1009.0 |
| 20260505222245 | 84 | 29 | 0.0 | 0.9 | 0.00 | 0.00 | 0.00 | 74 | 1009.2 |
| 20260505221742 | 83 | 96 | 0.9 | 1.7 | 0.00 | 0.00 | 0.00 | 73 | 1009.0 |
| 20260505221239 | 83 | 99 | 0.0 | 1.7 | 0.00 | 0.00 | 0.00 | 73 | 1009.2 |
| 20260505220736 | 83 | 107 | 0.9 | 3.5 | 0.00 | 0.00 | 0.00 | 72 | 1009.0 |
| 20260505220233 | 84 | 128 | 0.9 | 1.7 | 0.00 | 0.00 | 0.00 | 71 | 1009.0 |
| 20260505215731 | 83 | 159 | 0.9 | 1.7 | 0.00 | 0.00 | 0.00 | 72 | 1009.3 |
| 20260505215229 | 83 | 92 | 0.0 | 0.0 | 0.00 | 0.00 | 0.00 | 72 | 1009.3 |
| 20260505214726 | 84 | 160 | 0.0 | 0.0 | 0.00 | 0.00 | 0.00 | 72 | 1009.2 |
| 20260505214224 | 84 | 68 | 0.0 | 0.0 | 0.00 | 0.00 | 0.00 | 73 | 1009.2 |
| 20260505213721 | 84 | 102 | 0.0 | 7.0 | 0.00 | 0.00 | 0.00 | 72 | 1009.4 |
| 20260505213218 | 84 | 52 | 0.0 | 1.7 | 0.00 | 0.00 | 0.00 | 71 | 1009.5 |
| 20260505212714 | 84 | 128 | 1.7 | 6.1 | 0.00 | 0.00 | 0.00 | 70 | 1009.4 |
| 20260505212212 | 85 | 44 | 0.9 | 0.9 | 0.00 | 0.00 | 0.00 | 69 | 1009.4 |
| 20260505211708 | 85 | 145 | 1.7 | 2.6 | 0.00 | 0.00 | 0.00 | 70 | 1009.5 |
| 20260505211206 | 85 | 125 | 0.9 | 0.9 | 0.00 | 0.00 | 0.00 | 70 | 1009.4 |
| 20260505210702 | 85 | 158 | 1.7 | 3.5 | 0.00 | 0.00 | 0.00 | 70 | 1009.5 |
| 20260505210159 | 85 | 100 | 0.0 | 0.9 | 0.00 | 0.00 | 0.00 | 70 | 1009.6 |
| 20260505205656 | 85 | 188 | 0.9 | 1.7 | 0.00 | 0.00 | 0.00 | 70 | 1009.5 |
| 20260505205154 | 85 | 97 | 0.0 | 0.9 | 0.00 | 0.00 | 0.00 | 70 | 1009.7 |
| 20260505204650 | 85 | 102 | 0.0 | 0.9 | 0.00 | 0.00 | 0.00 | 70 | 1010.0 |
| 20260505204149 | 85 | 88 | 0.9 | 1.7 | 0.00 | 0.00 | 0.00 | 69 | 1009.9 |
| 20260505203646 | 85 | 63 | 0.9 | 3.5 | 0.00 | 0.00 | 0.00 | 69 | 1010.1 |
| 20260505203142 | 85 | 174 | 1.7 | 2.6 | 0.00 | 0.00 | 0.00 | 71 | 1010.3 |
| 20260505202638 | 85 | 97 | 0.9 | 1.7 | 0.00 | 0.00 | 0.00 | 70 | 1010.2 |
| 20260505202134 | 85 | 91 | 0.0 | 1.7 | 0.00 | 0.00 | 0.00 | 69 | 1010.1 |
| 20260505201631 | 86 | 208 | 0.9 | 0.9 | 0.00 | 0.00 | 0.00 | 68 | 1010.3 |
| 20260505201129 | 86 | 58 | 0.9 | 2.6 | 0.00 | 0.00 | 0.00 | 68 | 1010.2 |
| 20260505200627 | 86 | 85 | 0.0 | 0.9 | 0.00 | 0.00 | 0.00 | 70 | 1010.4 |
| 20260505200123 | 84 | 137 | 0.9 | 0.9 | 0.00 | 0.00 | 0.00 | 72 | 1010.4 |
| 20260505195619 | 83 | 127 | 0.9 | 1.7 | 0.00 | 0.00 | 0.00 | 72 | 1010.7 |
| 20260505195117 | 84 | 80 | 0.0 | 2.6 | 0.00 | 0.00 | 0.00 | 73 | 1010.8 |
| 20260505194614 | 84 | 19 | 0.9 | 0.9 | 0.00 | 0.00 | 0.00 | 72 | 1010.9 |
| 20260505194110 | 84 | 106 | 0.9 | 5.2 | 0.00 | 0.00 | 0.00 | 73 | 1010.9 |
| 20260505193607 | 84 | 139 | 1.7 | 3.5 | 0.00 | 0.00 | 0.00 | 72 | 1011.0 |
| 20260505193104 | 84 | 109 | 0.9 | 2.6 | 0.00 | 0.00 | 0.00 | 72 | 1010.9 |
| 20260505192603 | 84 | 25 | 0.9 | 1.7 | 0.00 | 0.00 | 0.00 | 73 | 1011.0 |
| 20260505192100 | 83 | 94 | 0.0 | 0.9 | 0.00 | 0.00 | 0.00 | 74 | 1011.1 |
| 20260505191558 | 83 | 152 | 1.7 | 2.6 | 0.00 | 0.00 | 0.00 | 73 | 1011.0 |
| 20260505191056 | 83 | 105 | 0.0 | 3.5 | 0.00 | 0.00 | 0.00 | 74 | 1010.8 |
| 20260505190556 | 83 | 93 | 2.6 | 2.6 | 0.00 | 0.00 | 0.00 | 73 | 1010.8 |
| 20260505190052 | 84 | 113 | 0.0 | 1.7 | 0.00 | 0.00 | 0.00 | 72 | 1010.8 |
| 20260505185549 | 85 | 85 | 0.9 | 1.7 | 0.00 | 0.00 | 0.00 | 71 | 1010.8 |
| 20260505185045 | 84 | 72 | 0.0 | 5.2 | 0.00 | 0.00 | 0.00 | 72 | 1011.0 |
| 20260505184542 | 84 | 126 | 0.9 | 0.9 | 0.00 | 0.00 | 0.00 | 73 | 1011.0 |
| 20260505184039 | 83 | 184 | 0.9 | 2.6 | 0.00 | 0.00 | 0.00 | 73 | 1011.1 |
| 20260505183536 | 83 | 139 | 0.0 | 1.7 | 0.00 | 0.00 | 0.00 | 74 | 1010.9 |
| 20260505183033 | 82 | 138 | 0.9 | 5.2 | 0.00 | 0.00 | 0.00 | 75 | 1011.0 |
| 20260505182529 | 81 | 188 | 0.0 | 0.9 | 0.00 | 0.00 | 0.00 | 78 | 1011.2 |
| 20260505182026 | 81 | 99 | 0.0 | 0.9 | 0.00 | 0.00 | 0.00 | 78 | 1011.3 |
| 20260505181523 | 81 | 96 | 0.0 | 0.9 | 0.00 | 0.00 | 0.00 | 76 | 1011.3 |
| 20260505181020 | 82 | 89 | 0.0 | 0.9 | 0.00 | 0.00 | 0.00 | 76 | 1011.5 |
| 20260505180516 | 81 | 77 | 1.7 | 3.5 | 0.00 | 0.00 | 0.00 | 75 | 1011.3 |
| 20260505180014 | 80 | 109 | 0.9 | 2.6 | 0.00 | 0.00 | 0.00 | 79 | 1011.5 |
| 20260505175508 | 80 | 108 | 0.9 | 0.9 | 0.00 | 0.00 | 0.00 | 81 | 1011.5 |
| 20260505175006 | 80 | 101 | 0.0 | 0.9 | 0.00 | 0.00 | 0.00 | 79 | 1011.5 |
| 20260505174503 | 81 | 103 | 0.0 | 0.9 | 0.00 | 0.00 | 0.00 | 78 | 1011.4 |
| 20260505173959 | 81 | 23 | 0.9 | 1.7 | 0.00 | 0.00 | 0.00 | 77 | 1011.7 |
| 20260505173455 | 81 | 74 | 0.0 | 0.9 | 0.00 | 0.00 | 0.00 | 78 | 1011.7 |
| 20260505172952 | 80 | 105 | 0.0 | 0.9 | 0.00 | 0.00 | 0.00 | 79 | 1011.7 |
| 20260505172451 | 79 | 356 | 1.7 | 2.6 | 0.00 | 0.00 | 0.00 | 80 | 1011.8 |
| 20260505171950 | 79 | 89 | 0.9 | 5.2 | 0.00 | 0.00 | 0.00 | 80 | 1011.7 |
| 20260505171447 | 79 | 125 | 0.0 | 0.0 | 0.00 | 0.00 | 0.00 | 80 | 1011.7 |
| 20260505170944 | 80 | 120 | 0.0 | 0.9 | 0.00 | 0.00 | 0.00 | 80 | 1011.8 |
| 20260505170440 | 80 | 146 | 0.9 | 1.7 | 0.00 | 0.00 | 0.00 | 80 | 1011.6 |
| 20260505165936 | 80 | 94 | 0.0 | 0.9 | 0.00 | 0.00 | 0.00 | 80 | 1011.7 |
| 20260505165432 | 79 | 49 | 0.9 | 0.9 | 0.00 | 0.00 | 0.00 | 80 | 1011.7 |
| 20260505164927 | 79 | 109 | 1.7 | 2.6 | 0.00 | 0.00 | 0.00 | 80 | 1011.9 |
| 20260505164424 | 79 | 59 | 1.7 | 3.5 | 0.00 | 0.00 | 0.00 | 80 | 1011.9 |
| 20260505163922 | 79 | 118 | 0.0 | 0.9 | 0.00 | 0.00 | 0.00 | 81 | 1011.8 |
| 20260505163421 | 78 | 44 | 0.9 | 1.7 | 0.00 | 0.00 | 0.00 | 82 | 1011.8 |
| 20260505162920 | 78 | 188 | 1.7 | 1.7 | 0.00 | 0.00 | 0.00 | 82 | 1012.0 |
| 20260505162415 | 78 | 95 | 0.0 | 0.9 | 0.00 | 0.00 | 0.00 | 82 | 1012.0 |
| 20260505161912 | 78 | 115 | 0.9 | 0.9 | 0.00 | 0.00 | 0.00 | 82 | 1012.1 |
| 20260505161409 | 78 | 121 | 0.0 | 1.7 | 0.00 | 0.00 | 0.00 | 83 | 1012.0 |
| 20260505160906 | 77 | 96 | 0.0 | 1.7 | 0.00 | 0.00 | 0.00 | 83 | 1012.1 |
| 20260505160404 | 77 | 105 | 0.0 | 0.9 | 0.00 | 0.00 | 0.00 | 85 | 1011.9 |
| 20260505153343 | 76 | 101 | 0.0 | 0.9 | 0.00 | 0.00 | 0.00 | 85 | 1011.8 |
| 20260505152840 | 76 | 91 | 0.0 | 0.9 | 0.00 | 0.00 | 0.00 | 85 | 1011.9 |
| 20260505152338 | 76 | 99 | 0.0 | 0.9 | 0.00 | 0.00 | 0.00 | 85 | 1011.8 |
| 20260505151837 | 76 | 99 | 0.0 | 0.0 | 0.00 | 0.00 | 0.00 | 85 | 1011.9 |
| 20260505151334 | 76 | 84 | 0.0 | 0.0 | 0.00 | 0.00 | 0.00 | 85 | 1011.8 |
| 20260505150832 | 76 | 98 | 0.0 | 0.0 | 0.00 | 0.00 | 0.00 | 85 | 1011.6 |
| 20260505150329 | 76 | 114 | 0.0 | 0.0 | 0.00 | 0.00 | 0.00 | 85 | 1011.6 |
| 20260505140258 | 73 | 87 | 0.9 | 3.5 | 0.00 | 0.00 | 0.00 | 88 | 1011.4 |
| 20260505130222 | 72 | 89 | 0.0 | 0.9 | 0.00 | 0.00 | 0.00 | 90 | 1011.6 |
| 20260505124712 | 72 | 84 | 0.0 | 0.9 | 0.00 | 0.00 | 0.00 | 90 | 1011.5 |
| 20260505124209 | 72 | 113 | 0.0 | 0.9 | 0.00 | 0.00 | 0.00 | 90 | 1011.3 |
| 20260505123705 | 72 | 103 | 0.0 | 0.9 | 0.00 | 0.00 | 0.00 | 90 | 1011.2 |
| 20260505123202 | 72 | 104 | 0.0 | 0.0 | 0.00 | 0.00 | 0.00 | 90 | 1011.2 |
| 20260505122658 | 72 | 94 | 0.0 | 0.0 | 0.00 | 0.00 | 0.00 | 90 | 1011.1 |
| 20260505122156 | 72 | 103 | 0.0 | 0.0 | 0.00 | 0.00 | 0.00 | 90 | 1010.9 |
| 20260505121652 | 72 | 156 | 0.0 | 0.0 | 0.00 | 0.00 | 0.00 | 89 | 1010.7 |
| 20260505121149 | 72 | 85 | 0.9 | 1.7 | 0.00 | 0.00 | 0.00 | 89 | 1010.8 |
| 20260505120645 | 72 | 70 | 0.9 | 2.6 | 0.00 | 0.00 | 0.00 | 90 | 1010.9 |
| 20260505120141 | 72 | 104 | 0.0 | 0.9 | 0.00 | 0.00 | 0.00 | 89 | 1010.8 |
| 20260505115635 | 72 | 107 | 0.0 | 0.9 | 0.00 | 0.00 | 0.00 | 89 | 1010.9 |
| 20260505115133 | 72 | 102 | 0.0 | 0.9 | 0.00 | 0.00 | 0.00 | 89 | 1010.8 |
| 20260505114630 | 71 | 109 | 0.0 | 0.9 | 0.00 | 0.00 | 0.00 | 89 | 1011.0 |
| 20260505114126 | 72 | 97 | 0.0 | 0.9 | 0.00 | 0.00 | 0.00 | 89 | 1011.0 |
| 20260505113622 | 72 | 227 | 0.0 | 0.9 | 0.00 | 0.00 | 0.00 | 89 | 1010.8 |
| 20260505113119 | 72 | 113 | 0.0 | 1.7 | 0.00 | 0.00 | 0.00 | 89 | 1010.8 |
| 20260505112615 | 72 | 121 | 0.9 | 1.7 | 0.00 | 0.00 | 0.00 | 89 | 1011.0 |
| 20260505112114 | 72 | 113 | 0.0 | 1.7 | 0.00 | 0.00 | 0.00 | 89 | 1010.8 |
| 20260505111614 | 72 | 96 | 0.0 | 0.9 | 0.00 | 0.00 | 0.00 | 89 | 1010.8 |
| 20260505111110 | 71 | 123 | 0.0 | 1.7 | 0.00 | 0.00 | 0.00 | 89 | 1010.7 |
| 20260505110606 | 71 | 129 | 0.0 | 0.9 | 0.00 | 0.00 | 0.00 | 89 | 1010.7 |
| 20260505102039 | 71 | 106 | 0.0 | 0.0 | 0.00 | 0.00 | 0.00 | 89 | 1010.7 |
| 20260505101537 | 71 | 97 | 0.0 | 0.9 | 0.00 | 0.00 | 0.00 | 89 | 1010.6 |
| 20260505101033 | 71 | 114 | 0.0 | 1.7 | 0.00 | 0.00 | 0.00 | 89 | 1010.9 |
| 20260505100530 | 71 | 43 | 0.9 | 1.7 | 0.00 | 0.00 | 0.00 | 89 | 1010.9 |
| 20260505100027 | 71 | 101 | 0.0 | 0.0 | 0.00 | 0.00 | 0.00 | 89 | 1011.1 |
| 20260505095523 | 71 | 111 | 0.0 | 0.9 | 0.00 | 0.00 | 0.00 | 89 | 1011.0 |
| 20260505095019 | 71 | 102 | 0.0 | 0.0 | 0.00 | 0.00 | 0.00 | 89 | 1010.9 |
| 20260505094516 | 71 | 98 | 0.0 | 0.0 | 0.00 | 0.00 | 0.00 | 89 | 1010.8 |
| 20260505094013 | 71 | 142 | 0.0 | 1.7 | 0.00 | 0.00 | 0.00 | 89 | 1010.9 |
| 20260505093509 | 71 | 73 | 0.9 | 0.9 | 0.00 | 0.00 | 0.00 | 89 | 1011.1 |
| 20260505093007 | 71 | 90 | 0.0 | 0.9 | 0.00 | 0.00 | 0.00 | 88 | 1011.1 |
| 20260505092504 | 71 | 102 | 0.0 | 0.0 | 0.00 | 0.00 | 0.00 | 88 | 1011.2 |
| 20260505092001 | 71 | 88 | 0.0 | 0.0 | 0.00 | 0.00 | 0.00 | 88 | 1011.1 |
| 20260505091459 | 71 | 102 | 0.0 | 0.0 | 0.00 | 0.00 | 0.00 | 88 | 1011.2 |
| 20260505090957 | 70 | 111 | 0.0 | 0.0 | 0.00 | 0.00 | 0.00 | 88 | 1011.4 |
| 20260505090455 | 70 | 91 | 0.0 | 0.0 | 0.00 | 0.00 | 0.00 | 88 | 1011.3 |
| 20260505085952 | 70 | 87 | 0.0 | 0.0 | 0.00 | 0.00 | 0.00 | 88 | 1011.2 |
| 20260505085449 | 70 | 85 | 0.0 | 0.0 | 0.00 | 0.00 | 0.00 | 88 | 1011.2 |
| 20260505084948 | 70 | 103 | 0.0 | 0.9 | 0.00 | 0.00 | 0.00 | 87 | 1011.4 |